Location: *
(44.9308°N, 123.0197°W)
Time: 04:17:47
(UTC+00:00)

Meteor 1-4 Rocket - Pass Details

Date: 09 April 2020
Orbit: 449 x 503 km, 81.2° (Epoch: 24 May)

Event Time Altitude Azimuth Distance (km) Brightness Sun altitude
Exits shadow 12:12:48 22° 207° (SSW) 1,136 4.0 -14.8°
Maximum altitude 12:15:04 61° 282° (WNW) 575 2.6 -14.5°
Drops below altitude 10° 12:18:48 10° 4° (N) 1,717 5.7 -13.9°
Sets 12:20:57 0° 8° (N) 2,600 6.8 -13.5°
